[[{"header":{"parameterUnit":"m.s-1","parameterCategory":1,"la1":30.2991,"la2":30.254,"lo1":-89.0895,"lo2":-89.0444,"dy":0.0017,"dx":0.0017,"nx":28,"ny":28,"refTime":"2025-03-22T21:00:00:Z","depth":0,"parameterNumber":2,"parameterNumberName":"U-component_of_WINDS"},"data":[0,0,0,0,0,0,0,0,0,0,0,0,0,0,0,0,0,0,0,0,0,0,0,0,0,0,0,0,0,0,0,0,0,0,0,0,0,0,0,0,0,0,0,0,0,0,0,0,0,0,0,0,0,0,0,0,0,0,-2.7538,-2.7537,0,-2.7512,-2.7512,-2.7511,-2.747,-2.747,-2.7469,-2.7468,-2.7443,-2.7443,-2.7443,0,0,0,0,0,0,0,0,0,0,0,0,0,-2.7553,-2.7553,-2.7538,-2.7537,-2.7537,-2.7512,-2.7512,-2.7511,-2.7471,-2.747,-2.7469,-2.7468,-2.7443,-2.7443,-2.7443,0,0,0,0,0,0,0,0,0,0,0,0,0,-2.7539,-2.7553,-2.7538,-2.7514,-2.7511,-2.7512,-2.7512,-2.7511,-2.7471,-2.747,-2.7469,-2.7468,-2.7443,-2.7443,-2.7443,-2.7465,0,0,-2.7443,-2.7443,0,0,0,0,0,0,0,0,-2.754,-2.7538,-2.7518,-2.7515,-2.7513,-2.7493,-2.7508,-2.7496,-2.7471,-2.7486,-2.7468,-2.7467,-2.7461,-2.7459,-2.7457,-2.7464,-2.7463,-2.7443,-2.7443,-2.7443,-2.7443,0,0,0,0,0,0,0,-2.7541,-2.7539,-2.7528,-2.7517,-2.7514,-2.7505,-2.7501,-2.7505,-2.748,-2.7485,-2.7482,-2.7479,-2.7459,-2.7457,-2.7456,-2.7463,-2.7443,-2.7443,-2.7443,-2.7443,-2.7487,-2.7488,0,0,0,0,0,0,-2.7545,-2.754,-2.7528,-2.7527,-2.7524,-2.7505,-2.7502,-2.7501,-2.748,-2.7476,-2.748,-2.7477,-2.7457,-2.7456,-2.7455,-2.7479,-2.7443,-2.7443,-2.7443,-2.7486,-2.7487,-2.7488,0,0,0,0,0,0,-2.7546,-2.7545,-2.7529,-2.7533,-2.753,-2.7506,-2.7505,-2.7501,-2.7498,-2.7476,-2.7472,-2.7482,-2.7456,-2.7455,-2.7463,-2.7477,-2.7443,-2.7443,-2.7484,-2.7486,-2.7488,-2.7527,0,0,0,0,0,0,-2.7546,-2.7545,-2.7553,-2.7533,-2.753,-2.7537,-2.7506,-2.7501,-2.7498,-2.7494,-2.7477,-2.7473,-2.7455,-2.7463,-2.7463,-2.7477,-2.7443,-2.7483,-2.7485,-2.7487,-2.7524,-2.753,-2.7535,0,0,0,0,0,-2.7547,-2.7565,-2.7553,-2.7552,-2.7539,-2.7538,-2.7536,-2.7515,-2.75,-2.7507,-2.7493,-2.7474,-2.7476,-2.7464,-2.7464,-2.7478,-2.7482,-2.7484,-2.7487,-2.7522,-2.7529,-2.7534,0,0,0,0,0,0,-2.7588,-2.7562,-2.7549,-2.7561,-2.7552,-2.7531,-2.754,-2.7523,-2.7519,-2.7515,-2.749,-2.7486,-2.7497,-2.7489,-2.7476,-2.7498,-2.7476,-2.7479,-2.7503,-2.7509,-2.7514,-2.7515,-2.7443,0,0,0,0,0,-2.7598,-2.7599,-2.7577,-2.759,-2.7586,-2.7564,-2.7563,-2.7548,-2.7537,-2.7533,-2.752,-2.7511,-2.751,-2.7509,-2.7507,-2.7524,-2.7519,-2.7533,-2.7538,-2.7543,-2.7545,-2.7552,-2.7558,-2.7497,-2.7497,-2.7497,0,0,-2.7619,-2.7606,-2.7608,-2.7598,-2.7589,-2.759,-2.7561,-2.7564,-2.7565,-2.7534,-2.754,-2.753,-2.7519,-2.7531,-2.7536,-2.7524,-2.7561,-2.7546,-2.755,-2.7549,-2.7555,-2.7561,-2.7566,-2.7498,-2.7498,-2.7498,0,0,-2.7658,-2.7649,-2.7658,-2.765,-2.7637,-2.7622,-2.7624,-2.7606,-2.7598,-2.7604,-2.7581,-2.7582,-2.7581,-2.7573,-2.7569,-2.7606,-2.7588,-2.7607,-2.7633,-2.764,-2.7645,-2.7649,-2.7661,-2.7666,-2.7609,-2.7609,-2.7609,0,-2.7686,-2.7687,-2.7665,-2.7669,-2.7665,-2.7637,-2.7646,-2.764,-2.7627,-2.7625,-2.7613,-2.761,-2.76,-2.761,-2.7619,-2.7617,-2.7619,-2.7607,-2.7646,-2.765,-2.7653,-2.7664,-2.7669,-2.7611,-2.7611,-2.7611,-2.7611,0,-2.7722,-2.7723,-2.7732,-2.7719,-2.7717,-2.7724,-2.7703,-2.7703,-2.7689,-2.7676,-2.7682,-2.767,-2.7664,-2.7666,-2.7652,-2.7673,-2.7666,-2.7651,-2.7627,-2.7662,-2.7671,-2.7676,-2.7615,-2.7614,-2.7613,-2.7613,0,0,-2.7784,-2.7759,-2.7763,-2.7756,-2.774,-2.7741,-2.7747,-2.7741,-2.7741,-2.7734,-2.7738,-2.7738,-2.7723,-2.7718,-2.7703,-2.771,-2.7739,-2.7693,-2.7693,-2.7701,-2.7761,-2.7771,-2.7777,-2.7728,-2.7729,-2.7729,-2.7761,0,-2.7818,-2.7826,-2.7806,-2.7819,-2.7819,-2.7793,-2.7798,-2.7789,-2.7778,-2.7777,-2.7764,-2.7764,-2.7745,-2.7742,-2.7748,-2.7734,-2.775,-2.7732,-2.773,-2.773,-2.7732,-2.7782,-2.7793,-2.7824,-2.7765,-2.7766,-2.7766,0,-2.7859,-2.7853,-2.7865,-2.7848,-2.7847,-2.7852,-2.7845,-2.7845,-2.7834,-2.7825,-2.7821,-2.7803,-2.7808,-2.7788,-2.7794,-2.7782,-2.778,-2.7774,-2.7775,-2.7772,-2.7749,-2.7779,-2.7834,-2.7837,-2.7772,-2.7772,-2.7772,0,-2.7901,-2.7896,-2.7902,-2.7898,-2.7879,-2.7882,-2.7875,-2.7863,-2.7861,-2.7855,-2.7853,-2.7849,-2.7846,-2.7843,-2.7825,-2.7812,-2.7833,-2.7811,-2.7825,-2.7825,-2.7828,-2.7828,-2.7881,-2.7831,-2.7831,-2.7831,-2.7831,0,-2.794,-2.7948,-2.7921,-2.7924,-2.7933,-2.7911,-2.792,-2.791,-2.79,-2.7902,-2.788,-2.7882,-2.7859,-2.7859,-2.7845,-2.7851,-2.7851,-2.7844,-2.7839,-2.7844,-2.7845,-2.7841,-2.7838,-2.7832,-2.7832,-2.7832,-2.7831,0,-2.7987,-2.7969,-2.7974,-2.7956,-2.7951,-2.7958,-2.7942,-2.7945,-2.7933,-2.7935,-2.7934,-2.7915,-2.7913,-2.7896,-2.7891,-2.7881,-2.7893,-2.7886,-2.7896,-2.7893,-2.7907,-2.7905,-2.7958,-2.7963,-2.7912,-2.7912,-2.7913,0,-2.8013,-2.8018,-2.8,-2.7999,-2.7992,-2.7991,-2.7988,-2.7968,-2.7966,-2.7954,-2.7959,-2.7955,-2.7951,-2.795,-2.7936,-2.7932,-2.7923,-2.7942,-2.7922,-2.7927,-2.7921,-2.792,-2.792,-2.7946,-2.7946,-2.7947,-2.7948,0,-2.8059,-2.8049,-2.8046,-2.8039,-2.8037,-2.8031,-2.8024,-2.8024,-2.8002,-2.8001,-2.7999,-2.7996,-2.799,-2.7987,-2.798,-2.7973,-2.7956,-2.7954,-2.7957,-2.7961,-2.7966,-2.7961,-2.7905,-2.7953,-2.7952,-2.7952,-2.7951,-2.7951,-2.8094,-2.8098,-2.8085,-2.8082,-2.8074,-2.8068,-2.8069,-2.8057,-2.8055,-2.8048,-2.8037,-2.8036,-2.8026,-2.8015,-2.8009,-2.8009,-2.7999,-2.8003,-2.8004,-2.8005,-2.8007,-2.7968,-2.8008,-2.8007,-2.8007,-2.8007,-2.8007,0,-2.8138,-2.8129,-2.8126,-2.8116,-2.8114,-2.8099,-2.809,-2.8089,-2.8088,-2.808,-2.8076,-2.8074,-2.8071,-2.8056,-2.8052,-2.8054,-2.8046,-2.8053,-2.8052,-2.805,-2.8016,-2.8014,-2.806,-2.806,-2.806,-2.806,-2.806,-2.806,-2.816,-2.8164,-2.8154,-2.8154,-2.8145,-2.8144,-2.814,-2.8134,-2.8127,-2.8125,-2.8122,-2.8113,-2.8102,-2.8096,-2.8093,-2.8089,-2.8087,-2.8097,-2.809,-2.8058,-2.8053,-2.8048,-2.8045,-2.8097,-2.8097,-2.8123,-2.8124,-2.8124]},{"header":{"parameterUnit":"m.s-1","parameterCategory":1,"la1":30.2991,"la2":30.254,"lo1":-89.0895,"lo2":-89.0444,"dy":0.0017,"dx":0.0017,"nx":28,"ny":28,"refTime":"2025-03-22T21:00:00:Z","depth":0,"parameterNumber":3,"parameterNumberName":"V-component_of_WINDS"},"data":[0,0,0,0,0,0,0,0,0,0,0,0,0,0,0,0,0,0,0,0,0,0,0,0,0,0,0,0,0,0,0,0,0,0,0,0,0,0,0,0,0,0,0,0,0,0,0,0,0,0,0,0,0,0,0,0,0,0,5.8693,5.8693,0,5.8708,5.8708,5.8709,5.8697,5.8696,5.8696,5.8695,5.8707,5.8708,5.8709,0,0,0,0,0,0,0,0,0,0,0,0,0,5.8652,5.8653,5.8693,5.8693,5.8693,5.8708,5.8708,5.8709,5.8697,5.8696,5.8695,5.8695,5.8707,5.8708,5.8709,0,0,0,0,0,0,0,0,0,0,0,0,0,5.8669,5.8653,5.8693,5.8689,5.8689,5.8708,5.8708,5.8709,5.8697,5.8696,5.8695,5.8695,5.8707,5.8708,5.8709,5.8731,0,0,5.8713,5.8713,0,0,0,0,0,0,0,0,5.8668,5.867,5.8689,5.8689,5.8689,5.87,5.8698,5.8716,5.8697,5.8694,5.8695,5.8694,5.8705,5.8706,5.8711,5.8732,5.8732,5.8713,5.8713,5.8714,5.8714,0,0,0,0,0,0,0,5.8666,5.8669,5.8699,5.869,5.869,5.8686,5.8688,5.8702,5.8703,5.8694,5.8693,5.8695,5.8705,5.871,5.8711,5.8733,5.8713,5.8714,5.8714,5.8715,5.8777,5.8777,0,0,0,0,0,0,5.8666,5.8668,5.8698,5.8699,5.8677,5.8688,5.8689,5.8697,5.8703,5.8703,5.8696,5.8695,5.8708,5.871,5.8711,5.8741,5.8714,5.8715,5.8716,5.8776,5.8777,5.8778,0,0,0,0,0,0,5.8665,5.8669,5.8698,5.8684,5.8687,5.8689,5.8698,5.8698,5.8703,5.8705,5.8705,5.8701,5.8707,5.871,5.8728,5.8741,5.8716,5.8717,5.8775,5.8776,5.8777,5.8798,0,0,0,0,0,0,5.8664,5.8668,5.8677,5.8684,5.8688,5.8714,5.8699,5.8699,5.8705,5.8704,5.8709,5.8709,5.8707,5.8726,5.8729,5.8742,5.8718,5.8773,5.8775,5.8777,5.8796,5.8799,5.8803,0,0,0,0,0,5.8663,5.868,5.8678,5.8681,5.8699,5.8715,5.8717,5.8715,5.8706,5.8715,5.8717,5.8709,5.8739,5.8728,5.8731,5.8745,5.8773,5.8775,5.8777,5.8794,5.8799,5.8803,0,0,0,0,0,0,5.8673,5.8681,5.8678,5.8699,5.8707,5.8713,5.8723,5.8719,5.8728,5.8726,5.8723,5.8724,5.8744,5.8745,5.8733,5.8768,5.8754,5.8757,5.8766,5.8771,5.8774,5.8774,5.8719,0,0,0,0,0,5.8678,5.8691,5.8697,5.8715,5.8719,5.8721,5.8728,5.8726,5.8733,5.8736,5.8739,5.8745,5.8756,5.8763,5.8773,5.8796,5.8798,5.8807,5.8811,5.8813,5.8816,5.8831,5.8836,5.8785,5.8785,5.8785,0,0,5.8687,5.8694,5.8702,5.8717,5.8723,5.8737,5.8723,5.8737,5.8748,5.8737,5.8756,5.8758,5.8765,5.8787,5.8796,5.8789,5.8831,5.8816,5.8818,5.8819,5.8834,5.8839,5.8843,5.8786,5.8786,5.8786,0,0,5.8713,5.8718,5.8735,5.8742,5.8752,5.8754,5.8758,5.8766,5.8768,5.8787,5.878,5.8792,5.881,5.8817,5.8822,5.8854,5.8848,5.8857,5.8876,5.889,5.8894,5.8898,5.8911,5.8916,5.886,5.886,5.886,0,5.8723,5.8744,5.8744,5.876,5.8768,5.8762,5.878,5.8786,5.8798,5.8803,5.8796,5.8821,5.8825,5.8849,5.8858,5.8862,5.8867,5.8857,5.8894,5.8898,5.8901,5.8914,5.8919,5.8861,5.8861,5.8861,5.8861,0,5.8758,5.8773,5.8785,5.88,5.8809,5.8826,5.8829,5.8838,5.8836,5.8839,5.8859,5.8865,5.8877,5.8883,5.8879,5.8907,5.8903,5.8895,5.888,5.8907,5.8919,5.8924,5.8863,5.8862,5.8862,5.8862,0,0,5.8787,5.8805,5.881,5.8818,5.883,5.8842,5.8859,5.8873,5.8882,5.8891,5.8907,5.8924,5.8918,5.8924,5.8922,5.8935,5.8964,5.8926,5.8926,5.8934,5.8997,5.9004,5.901,5.896,5.8961,5.8961,5.8997,0,5.8815,5.8847,5.8849,5.8878,5.8893,5.8889,5.8904,5.8914,5.8917,5.893,5.8934,5.8948,5.8937,5.8941,5.8954,5.8957,5.8976,5.8955,5.8974,5.8975,5.8974,5.9016,5.9023,5.9056,5.9002,5.9002,5.9003,0,5.885,5.8864,5.8896,5.8909,5.8916,5.8929,5.8945,5.8957,5.8968,5.897,5.898,5.8977,5.8995,5.8981,5.9007,5.8992,5.9001,5.9004,5.9005,5.9008,5.8991,5.9021,5.9067,5.9073,5.901,5.9009,5.9009,0,5.8872,5.8898,5.8921,5.8928,5.8943,5.8954,5.8961,5.8971,5.8981,5.8994,5.9001,5.9015,5.9023,5.9034,5.9035,5.9024,5.9062,5.9047,5.9065,5.9065,5.9074,5.9073,5.9123,5.9077,5.9077,5.9077,5.9077,0,5.8903,5.8922,5.8931,5.8945,5.8968,5.8971,5.8993,5.8999,5.9009,5.9024,5.9021,5.9035,5.9036,5.9051,5.9052,5.9075,5.9078,5.9081,5.9081,5.9082,5.9082,5.9088,5.9086,5.9078,5.9078,5.9077,5.9077,0,5.893,5.8937,5.8962,5.8976,5.8981,5.8997,5.9009,5.9023,5.9028,5.9048,5.9052,5.9059,5.9077,5.908,5.91,5.9101,5.9129,5.9126,5.9126,5.9126,5.9145,5.9144,5.9201,5.921,5.9157,5.9157,5.9157,0,5.895,5.8966,5.8983,5.8995,5.9003,5.902,5.9032,5.9035,5.9047,5.9063,5.9076,5.9094,5.9108,5.9137,5.9144,5.916,5.9158,5.9177,5.916,5.9162,5.9161,5.9161,5.9163,5.918,5.9181,5.9181,5.9182,0,5.8985,5.8989,5.9005,5.9025,5.9039,5.9054,5.9067,5.9077,5.9082,5.9096,5.9116,5.9127,5.915,5.9169,5.9186,5.9192,5.9189,5.9187,5.9193,5.9194,5.9195,5.9197,5.9137,5.9186,5.9186,5.9185,5.9185,5.9185,5.901,5.9026,5.9042,5.9061,5.9073,5.9087,5.9103,5.9111,5.9128,5.9148,5.9149,5.9171,5.9185,5.9208,5.9216,5.9233,5.9227,5.9234,5.9236,5.9238,5.9241,5.9192,5.9236,5.9236,5.9235,5.9235,5.9235,0,5.9047,5.9058,5.9077,5.9098,5.9115,5.9112,5.9128,5.9142,5.9162,5.9176,5.9192,5.9216,5.9235,5.9245,5.9263,5.9276,5.9275,5.9281,5.928,5.9283,5.9244,5.9239,5.9282,5.9282,5.9282,5.9282,5.9281,5.9281,5.9068,5.9095,5.9101,5.9134,5.9145,5.9169,5.9178,5.9192,5.9204,5.9232,5.9249,5.9255,5.9268,5.9288,5.9306,5.9308,5.9316,5.9323,5.9325,5.9289,5.9285,5.928,5.9275,5.9325,5.9325,5.9362,5.9362,5.9363]}]]